When you browse on this site, cookies collect data to enhance your experience and personalize the content and advertising you see.
Visit our Privacy Policy to learn more. By continuing to use the site, you agree to this use of cookies and data.
  • In Hungary
  • List of Countries
  • For 7 days
  • Water Temperature
  • Satellite Maps
  • Weather Map
  • News
  • Weather Widgets
  • user-avatar
    Login

    Hourly Weather Verl

    Today, 16 February, Saturday

    Time Temperature Precipitation Wind Pressure Humidity
    00:00 +7°C° 0 mm 3 mps 762 mmHg 61%
    01:00 +7°C° 0 mm 2 mps 762 mmHg 60%
    02:00 +7°C° 0 mm 2 mps 762 mmHg 61%
    03:00 +7°C° 0 mm 2 mps 762 mmHg 62%
    04:00 +6°C° 0 mm 2 mps 761 mmHg 63%
    05:00 +6°C° 0 mm 2 mps 761 mmHg 64%
    06:00 +6°C° 0 mm 2 mps 761 mmHg 65%
    07:00 +5°C° 0 mm 2 mps 761 mmHg 65%
    08:00 +6°C° 0 mm 2 mps 761 mmHg 63%
    09:00 +7°C° 0 mm 2 mps 761 mmHg 61%
    10:00 +8°C° 0 mm 2 mps 761 mmHg 59%
    11:00 +10°C° 0 mm 3 mps 761 mmHg 55%
    12:00 +12°C° 0 mm 3 mps 761 mmHg 51%
    13:00 +14°C° 0 mm 3 mps 761 mmHg 48%
    14:00 +15°C° 0 mm 2 mps 761 mmHg 50%
    15:00 +15°C° 0 mm 2 mps 760 mmHg 52%
    16:00 +14°C° 0 mm 2 mps 760 mmHg 54%
    17:00 +13°C° 0 mm 2 mps 760 mmHg 59%
    18:00 +10°C° 0 mm 2 mps 760 mmHg 64%
    19:00 +8°C° 0 mm 2 mps 760 mmHg 70%
    20:00 +8°C° 0 mm 2 mps 760 mmHg 72%
    21:00 +7°C° 0 mm 2 mps 760 mmHg 75%
    22:00 +7°C° 0 mm 2 mps 760 mmHg 77%
    23:00 +7°C° 0 mm 2 mps 760 mmHg 78%

    Tomorrow, 17 February, Sunday

    Time Temperature Precipitation Wind Pressure Humidity
    00:00 +6°C° 0 mm 2 mps 760 mmHg 79%
    01:00 +6°C° 0 mm 2 mps 760 mmHg 80%
    02:00 +7°C° 0 mm 1 mps 760 mmHg 80%
    03:00 +6°C° 0 mm 1 mps 760 mmHg 80%
    04:00 +6°C° 0 mm 1 mps 760 mmHg 80%
    05:00 +5°C° 0 mm 2 mps 760 mmHg 78%
    06:00 +5°C° 0 mm 2 mps 759 mmHg 76%
    07:00 +5°C° 0 mm 2 mps 759 mmHg 74%
    08:00 +6°C° 0 mm 2 mps 759 mmHg 70%
    09:00 +7°C° 0 mm 2 mps 759 mmHg 67%
    10:00 +8°C° 0 mm 2 mps 759 mmHg 63%
    11:00 +10°C° 0 mm 2 mps 759 mmHg 59%
    12:00 +12°C° 0 mm 2 mps 758 mmHg 55%
    13:00 +14°C° 0 mm 2 mps 758 mmHg 52%
    14:00 +14°C° 0 mm 2 mps 758 mmHg 53%
    15:00 +14°C° 0 mm 2 mps 757 mmHg 55%
    16:00 +14°C° 0 mm 2 mps 757 mmHg 56%
    17:00 +13°C° 0 mm 2 mps 757 mmHg 61%
    18:00 +10°C° 0 mm 2 mps 757 mmHg 66%
    19:00 +8°C° 0 mm 2 mps 757 mmHg 71%
    20:00 +8°C° 0 mm 2 mps 757 mmHg 71%
    21:00 +7°C° 0 mm 2 mps 757 mmHg 71%
    22:00 +7°C° 0 mm 2 mps 757 mmHg 71%
    23:00 +6°C° 0 mm 2 mps 757 mmHg 71%

    Day after tomorrow, 18 February, Monday

    Time Temperature Precipitation Wind Pressure Humidity
    00:00 +6°C° 0 mm 2 mps 757 mmHg 71%
    01:00 +6°C° 0 mm 2 mps 757 mmHg 70%
    02:00 +6°C° 0 mm 2 mps 757 mmHg 70%
    03:00 +5°C° 0 mm 2 mps 757 mmHg 70%
    04:00 +5°C° 0 mm 2 mps 756 mmHg 70%
    05:00 +5°C° 0 mm 2 mps 756 mmHg 69%
    06:00 +5°C° 0 mm 2 mps 756 mmHg 69%
    07:00 +5°C° 0 mm 2 mps 756 mmHg 69%
    08:00 +6°C° 0 mm 2 mps 756 mmHg 66%
    09:00 +7°C° 0 mm 2 mps 756 mmHg 63%
    10:00 +8°C° 0 mm 2 mps 756 mmHg 60%
    11:00 +10°C° 0 mm 2 mps 756 mmHg 56%
    12:00 +12°C° 0 mm 2 mps 755 mmHg 51%
    13:00 +14°C° 0 mm 2 mps 755 mmHg 47%
    14:00 +14°C° 0 mm 2 mps 755 mmHg 49%
    15:00 +14°C° 0 mm 2 mps 754 mmHg 51%
    16:00 +14°C° 0 mm 2 mps 754 mmHg 54%
    17:00 +13°C° 0 mm 2 mps 754 mmHg 58%
    18:00 +10°C° 0 mm 3 mps 754 mmHg 63%
    19:00 +8°C° 0 mm 3 mps 754 mmHg 68%
    20:00 +8°C° 0 mm 3 mps 754 mmHg 70%
    21:00 +8°C° 0 mm 3 mps 754 mmHg 72%
    22:00 +7°C° 0 mm 3 mps 754 mmHg 74%
    23:00 +7°C° 0 mm 3 mps 754 mmHg 75%

    19 February, Tuesday

    Time Temperature Precipitation Wind Pressure Humidity
    00:00 +7°C° 0 mm 3 mps 754 mmHg 77%
    01:00 +7°C° 0 mm 3 mps 754 mmHg 78%
    02:00 +5°C° 0 mm 3 mps 754 mmHg 79%
    03:00 +5°C° 0 mm 3 mps 753 mmHg 79%
    04:00 +5°C° 0 mm 3 mps 753 mmHg 80%
    05:00 +5°C° 0.2 mm 4 mps 753 mmHg 82%
    06:00 +6°C° 0.2 mm 4 mps 753 mmHg 84%
    07:00 +6°C° 0.2 mm 4 mps 753 mmHg 86%
    08:00 +6°C° 0.5 mm 4 mps 753 mmHg 87%
    09:00 +6°C° 0.5 mm 5 mps 754 mmHg 87%
    10:00 +6°C° 0.5 mm 5 mps 754 mmHg 88%
    11:00 +7°C° 0.1 mm 5 mps 754 mmHg 81%
    12:00 +8°C° 0.1 mm 6 mps 755 mmHg 74%
    13:00 +8°C° 0.1 mm 7 mps 755 mmHg 67%
    14:00 +8°C° 0 mm 6 mps 755 mmHg 66%
    15:00 +8°C° 0 mm 6 mps 755 mmHg 66%
    16:00 +8°C° 0 mm 6 mps 755 mmHg 65%
    17:00 +7°C° 0 mm 5 mps 756 mmHg 70%
    18:00 +6°C° 0 mm 4 mps 756 mmHg 75%
    19:00 +5°C° 0 mm 3 mps 756 mmHg 80%
    20:00 +5°C° 0 mm 3 mps 757 mmHg 82%
    21:00 +4°C° 0 mm 3 mps 757 mmHg 84%
    22:00 +4°C° 0 mm 3 mps 757 mmHg 86%
    23:00 +3°C° 0 mm 3 mps 758 mmHg 87%

    20 February, Wednesday

    Time Temperature Precipitation Wind Pressure Humidity
    00:00 +3°C° 0 mm 3 mps 758 mmHg 88%
    01:00 +3°C° 0 mm 3 mps 758 mmHg 89%
    02:00 +3°C° 0 mm 3 mps 758 mmHg 89%
    03:00 +3°C° 0 mm 3 mps 758 mmHg 90%
    04:00 +3°C° 0 mm 3 mps 758 mmHg 91%
    05:00 +2°C° 0 mm 3 mps 758 mmHg 91%
    06:00 +2°C° 0 mm 3 mps 758 mmHg 92%
    07:00 +2°C° 0 mm 3 mps 758 mmHg 92%
    08:00 +3°C° 0 mm 4 mps 758 mmHg 88%
    09:00 +4°C° 0 mm 4 mps 759 mmHg 84%
    10:00 +5°C° 0 mm 4 mps 759 mmHg 80%
    11:00 +7°C° 0 mm 4 mps 759 mmHg 75%
    12:00 +8°C° 0 mm 5 mps 759 mmHg 70%
    13:00 +9°C° 0 mm 5 mps 759 mmHg 65%
    14:00 +10°C° 0 mm 4 mps 759 mmHg 63%
    15:00 +10°C° 0 mm 4 mps 759 mmHg 62%
    16:00 +10°C° 0 mm 4 mps 759 mmHg 61%
    17:00 +9°C° 0 mm 3 mps 759 mmHg 65%
    18:00 +8°C° 0 mm 3 mps 759 mmHg 69%
    19:00 +7°C° 0 mm 2 mps 759 mmHg 73%
    20:00 +6°C° 0 mm 2 mps 760 mmHg 74%
    21:00 +5°C° 0 mm 3 mps 760 mmHg 75%
    22:00 +5°C° 0 mm 3 mps 760 mmHg 75%
    23:00 +5°C° 0 mm 3 mps 760 mmHg 76%

    21 February, Thursday

    Time Temperature Precipitation Wind Pressure Humidity
    00:00 +5°C° 0 mm 3 mps 760 mmHg 78%
    01:00 +5°C° 0 mm 3 mps 760 mmHg 79%
    02:00 +5°C° 0 mm 3 mps 760 mmHg 81%
    03:00 +5°C° 0 mm 3 mps 760 mmHg 83%
    04:00 +5°C° 0 mm 4 mps 760 mmHg 85%
    05:00 +5°C° 0 mm 4 mps 760 mmHg 88%
    06:00 +4°C° 0 mm 4 mps 760 mmHg 90%
    07:00 +4°C° 0 mm 4 mps 760 mmHg 93%
    08:00 +5°C° 0 mm 4 mps 760 mmHg 89%
    09:00 +6°C° 0 mm 5 mps 760 mmHg 86%
    10:00 +7°C° 0 mm 5 mps 760 mmHg 83%
    11:00 +8°C° 0 mm 5 mps 760 mmHg 80%
    12:00 +8°C° 0 mm 5 mps 760 mmHg 78%
    13:00 +9°C° 0 mm 5 mps 761 mmHg 76%
    14:00 +9°C° 0.1 mm 5 mps 761 mmHg 79%
    15:00 +10°C° 0.1 mm 4 mps 761 mmHg 81%
    16:00 +9°C° 0.1 mm 3 mps 761 mmHg 84%
    17:00 +9°C° 0.1 mm 3 mps 761 mmHg 86%
    18:00 +9°C° 0.1 mm 3 mps 761 mmHg 88%
    19:00 +9°C° 0.1 mm 3 mps 761 mmHg 89%
    20:00 +9°C° 0.1 mm 3 mps 762 mmHg 90%
    21:00 +8°C° 0.1 mm 4 mps 762 mmHg 91%
    22:00 +8°C° 0.1 mm 4 mps 762 mmHg 92%
    23:00 +8°C° 0.1 mm 4 mps 762 mmHg 92%
    Show more